Rhinelander, WI

6:46 AM CDT on April 23, 2017 (GMT -0500)
Rhinelander-Oneida County

Weather History for KRHI - December, 2011

Change the Weather History Date:

Tuesday, December 20, 2011

  Actual Average Record
Temperature  
Mean Temperature 26 °F 15 °F  
Max Temperature 30 °F 24 °F 43 °F (1994)
Min Temperature 22 °F 7 °F -32 °F (1983)
Degree Days  
Heating Degree Days 39 50  
Month to date heating degree days 866 932  
Since 1 July heating degree days 2657 3066  
Cooling Degree Days 0 0  
Month to date cooling degree days 0 0  
Year to date cooling degree days 321 261  
Moisture  
Dew Point 18 °F    
Average Humidity 73    
Maximum Humidity 88    
Minimum Humidity 58    
Precipitation  
Precipitation T in 0.04 in 0.43 in (1978)
Month to date precipitation 1.43 0.97  
Year to date precipitation 27.62 30.93  
Snow  
Snow T in - 4.00 in (2004)
Month to date snowfall 9.6  
Since 1 July snowfall 23.9  
Snow Depth 3.00 in    
Sea Level Pressure  
Sea Level Pressure 29.99 in    
Wind  
Wind Speed 10 mph (SSW)    
Max Wind Speed 18 mph    
Max Gust Speed 24 mph    
Visibility 10 miles    
Events      
T = Trace of Precipitation, MM = Missing Value Source: NWS Daily Summary

Daily Weather History Graph

Daily Weather History Graph

Search for Another Location

Airport or City:

Trip Planner

Search our weather history database for the weather conditions in past years. The results will help you decide how hot, cold, wet, or windy it might be!

Date:

Astronomy

Dec. 20, 2011 Rise Set
Actual Time 7:34 AM CST 4:16 PM CST
Civil Twilight 7:00 AM CST 4:50 PM CST
Nautical Twilight 6:22 AM CST 5:28 PM CST
Astronomical Twilight 5:46 AM CST 6:04 PM CST
Moon 2:48 AM CST (12/20) 12:58 PM CST (12/20)
Length of Visible Light 9h 50m
Length of Day
8h 41m
Waning Crescent, 21% of the Moon is Illuminated
Dec 20
Waning Crescent
Dec 24
New
Jan 1
First Quarter
Jan 9
Full
Jan 16
Last Quarter

Hourly Weather History & Observations

Time (CST) Temp. Windchill Dew Point Humidity Pressure Visibility Wind Dir Wind Speed Gust Speed Precip Events Conditions
12:53 AM 24.1 °F - 17.1 °F 75% 30.25 in 10.0 mi Calm Calm - N/A   Overcast
1:53 AM 25.0 °F 17.1 °F 16.0 °F 69% 30.23 in 10.0 mi South 6.9 mph - N/A   Overcast
2:53 AM 25.0 °F 19.3 °F 16.0 °F 69% 30.24 in 10.0 mi SSW 4.6 mph - N/A   Overcast
3:53 AM 25.0 °F 18.1 °F 16.0 °F 69% 30.21 in 10.0 mi SSW 5.8 mph - N/A   Overcast
4:53 AM 25.0 °F 17.1 °F 16.0 °F 69% 30.19 in 10.0 mi SSW 6.9 mph - N/A   Overcast
6:53 AM 25.0 °F 15.5 °F 16.0 °F 69% 30.16 in 10.0 mi SW 9.2 mph - N/A   Overcast
7:53 AM 24.1 °F 13.7 °F 15.1 °F 69% 30.13 in 10.0 mi SW 10.4 mph - N/A   Overcast
8:15 AM 24.8 °F 16.9 °F 15.8 °F 69% 30.03 in 10.0 mi SSW 6.9 mph - N/A   Scattered Clouds
8:53 AM 24.1 °F 17.0 °F 15.1 °F 69% 30.12 in 10.0 mi SSW 5.8 mph - N/A   Partly Cloudy
9:29 AM 26.6 °F 16.8 °F 15.8 °F 64% 30.03 in 10.0 mi SSW 10.4 mph 16.1 mph N/A   Mostly Cloudy
9:53 AM 26.1 °F 16.2 °F 16.0 °F 66% 30.09 in 10.0 mi SSW 10.4 mph - N/A   Scattered Clouds
10:53 AM 28.0 °F 18.1 °F 17.1 °F 63% 30.04 in 10.0 mi SW 11.5 mph 19.6 mph N/A   Clear
11:53 AM 28.9 °F 19.2 °F 18.0 °F 64% 30.01 in 10.0 mi SW 11.5 mph 20.7 mph N/A   Partly Cloudy
12:53 PM 30.0 °F 19.1 °F 18.0 °F 61% 29.97 in 10.0 mi SW 15.0 mph - N/A   Clear
1:53 PM 30.0 °F 20.0 °F 19.0 °F 64% 29.94 in 10.0 mi South 12.7 mph 17.3 mph N/A   Clear
2:53 PM 30.0 °F 18.3 °F 19.0 °F 64% 29.92 in 10.0 mi SW 17.3 mph 23.0 mph N/A   Partly Cloudy
3:53 PM 28.0 °F 17.5 °F 19.0 °F 69% 29.90 in 10.0 mi SW 12.7 mph 17.3 mph N/A   Clear
4:53 PM 26.1 °F 20.5 °F 18.0 °F 71% 29.88 in 10.0 mi SSW 4.6 mph - N/A   Clear
5:53 PM 25.0 °F 18.1 °F 18.0 °F 75% 29.87 in 10.0 mi SSW 5.8 mph - N/A   Clear
6:53 PM 24.1 °F 16.0 °F 19.0 °F 81% 29.85 in 10.0 mi SSW 6.9 mph - N/A   Clear
7:53 PM 23.0 °F 14.7 °F 19.0 °F 85% 29.83 in 10.0 mi SSW 6.9 mph - N/A   Clear
8:53 PM 23.0 °F 13.1 °F 19.0 °F 85% 29.82 in 10.0 mi SSW 9.2 mph - N/A   Clear
9:53 PM 23.0 °F 11.1 °F 19.9 °F 88% 29.81 in 10.0 mi SSW 12.7 mph - N/A   Mostly Cloudy
10:33 PM 23.0 °F 13.1 °F 21.2 °F 93% 29.73 in 10.0 mi SSW 9.2 mph - N/A   Scattered Clouds
10:53 PM 24.1 °F 12.0 °F 21.0 °F 88% 29.79 in 9.0 mi SSW 13.8 mph 19.6 mph N/A   Mostly Cloudy
11:53 PM 24.1 °F 11.5 °F 21.9 °F 91% 29.77 in 8.0 mi SSW 15.0 mph - N/A   Overcast